SBRB Airport Information

Runway Information
Runway 6 Length 7080 ft width 148 ft
Elevation 0 ft Threshold 0 ft Heading 0
Runway 24 Length 7080 ft Width 148 ft
Elevation 0 ft Threshold 0 ft Heading 0
Airport Frequencies
Type APP Name RIO BRANCO Frequency 119.9 MHZ
Type TWR Name RIO BRANCO Frequency 118.7 MHZ
Airport Navaids
Type VOR-DME Name Branco Frequency 114200 KHZ
Type NDB Name Branco Frequency 355 KHZ
Airport Weather Information & NOTAM
ADDS - METARS form results

(1010 UTC 18 August 2018)
 
METAR text: SBRB 181000Z 00000KT CAVOK 20/18 Q1015
Conditions at: SBRB (RIO BRANCO/MEDIC, BR) observed 1000 UTC 18 August 2018
Temperature: 20.0°C (68°F)
Dewpoint: 18.0°C (64°F) [RH = 88%]
Pressure (altimeter): 29.97 inches Hg (1015.0 mb)
Winds: calm
Visibility: 6 or more miles (10+ km)
Ceiling: ceiling and visibility are OK
Clouds: unknown
Weather: no significant weather observed at this time